Skip Page Navigation
NASA JPL Caltech
NASA Logo - Jet Propulsion Laboratory + View the NASA Portal
+ Near-Earth Object (NEO) Program
Search JPL
JPL Home Earth Solar System Stars & Galaxies Technology
JPL Solar System Dynamics
BODIES ORBITS EPHEMERIDES TOOLS PHYSICAL DATA DISCOVERY FAQ SITE MAP
JPL Small-Body Database Browser
Search: [ help ]  
8043 Fukuhara (1994 XE1)
Classification: Main-belt Asteroid          SPK-ID: 2008043
Ephemeris | Orbit Diagram | Orbital Elements | Physical Parameters | Discovery Circumstances ]

[ show orbit diagram ]
Orbital Elements at Epoch 2456800.5 (2014-May-23.0) TDB
Reference: JPL 6 (heliocentric ecliptic J2000)
 Element Value Uncertainty (1-sigma)   Units 
e .09672861504138275 6.2788e-08  
a 2.33315745802815 1.4401e-08 AU
q 2.107474368439614 1.4595e-07 AU
i 8.444550148427972 6.6858e-06 deg
node 74.39481489266426 4.5501e-05 deg
peri 344.1113131651052 6.0283e-05 deg
M 192.9783217953314 3.8173e-05 deg
tp 2457404.427551452901
(2016-Jan-16.92755145)
0.00013936 JED
period 1301.710777068261
3.56
1.2052e-05
3.3e-08
d
yr
n .2765591299864621 2.5605e-09 deg/d
Q 2.558840547616686 1.5794e-08 AU
  Orbit Determination Parameters
   # obs. used (total)      855  
   data-arc span      22733 days (62.24 yr)  
   first obs. used      1951-12-01  
   last obs. used      2014-02-26  
   planetary ephem.      DE431  
   SB-pert. ephem.      SB431-BIG16  
   condition code      0  
   fit RMS      .55738  
   data source      ORB  
   producer      Otto Matic  
   solution date      2014-Mar-22 10:51:56  

Additional Information
 Earth MOID = 1.12045 AU 
 T_jup = 3.549 
[ show covariance matrix ]

Ephemeris | Orbit Diagram | Orbital Elements | Physical Parameters | Discovery Circumstances ]

Physical Parameter Table
Parameter Symbol Value Units Sigma Reference Notes
absolute magnitude H 14.0 mag n/a MPO263420  

8043 Fukuhara           Discovered 1994 Dec. 6 by T. Kobayashi at Oizumi.
Naohito Fukuhara (b. 1965) is a computer engineer and amateur astronomer. He edits an astronomy news website that has contributed to making astronomical knowledge popular.
NOTE: some special characters may not display properly (any characters within {} are an attempt to place the proper accent above a character)
Reference: 20030910/MPCPages.arcLast Updated: 2003-10-02

Alternate Designations
 1994 XE1 = 1951 XL1 = 1976 YV6 = 1987 YB6 
Ephemeris | Orbit Diagram | Orbital Elements | Physical Parameters | Discovery Circumstances ]
ABOUT SSD CREDITS/AWARDS PRIVACY/COPYRIGHT GLOSSARY LINKS
FirstGov 2014-Apr-24 22:36 UT
(server date/time)  
NASA Home Page
Site Manager:   Donald K. Yeomans
Webmaster  Alan B. Chamberlin